Regional Weather Roundup
Issued by NWS

Home | Current Version | Previous Version | Graphics & Text | Print | Product List | Glossary Off
Versions: 1 2 3 4 5 6 7 8 9 10 11 12 13 14 15 16 17 18 19 20 21 22 23 24 25 26 27 28 29 30 31 32 33 34 35 36 37 38 39 40 41 42 43 44 45 46 47 48 49 50

905
ASUS43 KDMX 191706
RWRIA

WEATHER ROUNDUP FOR IOWA
NATIONAL WEATHER SERVICE DES MOINES IA
1100 AM CST MON FEB 19 2018

NOTE: "FAIR" INDICATES FEW OR NO CLOUDS BELOW 12,000 FEET WITH NO
SIGNIFICANT WEATHER AND/OR OBSTRUCTIONS TO VISIBILITY.

* - THESE STATIONS ARE NOT NWS STATIONS...THUS NOT UNDER NWS
QUALITY CONTROL.  THEY ALSO DO NOT REPORT WEATHER SUCH
AS PRECIPITATION OR FOG.

IAZ001>003-012>014-020>022-031>034-043>046-191800-
   NORTHWEST IOWA

CITY           SKY/WX    TMP DP  RH WIND       PRES   REMARKS
CARROLL *      CLOUDY    27  27 100 N21       29.74S FOG     WCI  13
CHEROKEE *     CLOUDY    20  19  96 N9        29.82R FOG     WCI   9
DENISON *      CLOUDY    25  25 100 N20G26    29.79R FOG     WCI  11
LE MARS *      CLOUDY    19  16  86 MISG      29.84S
ORANGE CITY *  CLOUDY    19  18  93 NE12G20   29.83R WCI   7
SHELDON *      CLOUDY    18  16  93 MISG      29.81S FOG
SIOUX CITY     CLOUDY    20  18  92 N17       29.85S WCI   5
SPENCER        MIX PCPN  20  16  84 MISG      29.80F FOG
STORM LAKE *   SUNNY     21  19  93 MISG      29.77R FOG
$$

IAZ055>058-069>071-079>083-090>094-191800-
   SOUTHWEST IOWA

CITY           SKY/WX    TMP DP  RH WIND       PRES   REMARKS
ATLANTIC *     CLOUDY    28  28 100 N16       29.75R FOG     WCI  17
AUDUBON *      MIX PCPN  27  25  93 N15       29.74S WCI  15
CLARINDA *     CLOUDY    32  32 100 N15       29.76S FOG     WCI  22
COUNCIL BLFS * CLOUDY    25  25 100 N13       29.78R FOG     WCI  13
CRESTON *      CLOUDY    32  32 100 NW15      29.71R FOG     WCI  22
HARLAN  *      CLOUDY    27  27 100 N17       29.79R WCI  14
LAMONI         FOG       55  54  96 W15       29.65R VSB 1
RED OAK *      CLOUDY    30  30 100 N13G20    29.76R FOG     WCI  20
SHENANDOAH *   CLOUDY    30  28  93 N12G18    29.79R FOG     WCI  21
$$

IAZ047>049-059>061-072>074-084-191800-
   CENTRAL IOWA

CITY           SKY/WX    TMP DP  RH WIND       PRES   REMARKS
AMES           FOG       35  34  96 N9        29.69S VSB 1   WCI  28
ANKENY *       FOG       37  36  93 N8        29.69R VSB 1   WCI  31
BOONE *        CLOUDY    32  32 100 N15       29.69R VSB 1   WCI  22
CHARITON *     LGT RAIN  48  48 100 NW8       29.65S VSB 1/4
DES MOINES     LGT RAIN  36  34  92 NW9       29.68R VSB 1   WCI  29
GRINNELL*      LGT RAIN  42  41  97 NW3       29.68R VSB<1/4
KNOXVILLE *    CLOUDY    46  46 100 N6        29.64S FOG
MARSHALLTOWN   CLOUDY    38  38 100 NE10      29.66S FOG     WCI  31
NEWTON *       LGT RAIN  43  43 100 NE5       29.66F VSB 1/2
PELLA *        DRZL/FOG  46  45  98 N3        29.67S VSB 1/2
PERRY *        CLOUDY    32  32 100 NW12      29.72R FOG     WCI  23
$$

IAZ004>006-015-016-023>025-035-036-191800-
   NORTH CENTRAL IOWA

CITY           SKY/WX    TMP DP  RH WIND       PRES   REMARKS
ALGONA *       LGT SNOW  27 N/A N/A MISG      29.74F
CLARION *      CLOUDY    30  30 100 N22G29    29.71S FOG     WCI  17
ESTHERVILLE    LGT SNOW  18  16  92 MISG      29.79F FOG
FORT DODGE *   CLOUDY    29  27  92 N15G25    29.73S FOG     WCI  18
MASON CITY     MIX PCPN  30  28  92 N20       29.74F FOG     WCI  17
FOREST CITY *  MIX PCPN  32  30  93 NE12G17   29.74F VSB 1   WCI  23
WEBSTER CITY * CLOUDY    32  32 100 N18       29.70R FOG     WCI  20
IOWA FALLS *   CLOUDY    34  33  96 NE13      29.69F FOG     WCI  25
$$

IAZ007>011-017>019-026>030-037>042-050>054-066-191800-
   NORTHEAST IOWA

CITY           SKY/WX    TMP DP  RH WIND       PRES   REMARKS
CEDAR RAPIDS   RAIN      44  44 100 VRB3      29.67F VSB 1/2
CHARLES CITY * LGT RAIN  34  34 100 N12       29.73R VSB 3/4 WCI  25
CLINTON *      LGT RAIN  38  38 100 MISG        N/A  VSB 1/4
DECORAH *      CLOUDY    36  36 100 NE7G15    29.72F FOG     WCI  30
DUBUQUE        FOG       38  36  92 NE7       29.72F VSB 1/4 WCI  33
MONTICELLO *   CLOUDY    41  41 100 E7        29.70F FOG
OELWEIN *      FOG       37  36  93 NE14      29.68F VSB 1/2 WCI  29
WATERLOO       CLOUDY    36  36 100 NE8       29.69F FOG     WCI  30
$$

IAZ064-065-067-068-078-191800-
   EAST CENTRAL IOWA

CITY           SKY/WX    TMP DP  RH WIND       PRES   REMARKS
DAVENPORT      CLOUDY    48  46  93 S13       29.73F FOG
IOWA CITY      FOG       43  41  93 SE5       29.69F VSB 1/4
MT. PLEASANT * CLOUDY    54  54 100 S15       29.70F
MUSCATINE *    FOG       46  46 100 CALM      29.71F VSB<1/4
QUAD CITIES    LGT RAIN  51  50  96 S8        29.70F
$$

IAZ062-063-075>077-085>089-095>099-191800-
   SOUTHEAST IOWA

CITY           SKY/WX    TMP DP  RH WIND       PRES   REMARKS
BURLINGTON     CLOUDY    56  54  93 S15       29.71F
FAIRFIELD *    CLOUDY    54  54 100 S14       29.67S
FORT MADISON * CLOUDY    57  55  94 S13       29.72F
KEOKUK *       CLOUDY    59  57  94 S17       29.72S
OSKALOOSA *    CLOUDY    50  49  98 S15       29.65S FOG
OTTUMWA        CLOUDY    54  53  97 S12       29.65S
WASHINGTON *   CLOUDY    52  52 100 S17       29.69S FOG
$$

ABBREVIATIONS USED IN REMARKS
   TC - TEMPERATURES IN CELSIUS
  WCI - WIND CHILL INDEX
   HX - HEAT INDEX
  VSB - VISIBILITY
$$





USA.gov is the U.S. government's official web portal to all federal, state and local government web resources and services.